When you browse on this site, cookies collect data to enhance your experience and personalize the content and advertising you see.
Visit our Privacy Policy to learn more. By continuing to use the site, you agree to this use of cookies and data.
  • In Österreich
  • Länderverzeichnis
  • Für 7 Tage
  • Wassertemperatur
  • Satellitenkarten
  • Wetterkarte
  • News
  • Widgets
  • user-avatar
    Anmelden

    Stündliche Wetter Ristiina

    Heute, 17 Juli, Mittwoch

    Zeit Temperatur Niederschläge Wind Luftdruck Luftfeuchtigkeit
    00:00 +12°C° 0 mm 2 m/S 749 mmHg 79%
    01:00 +12°C° 0 mm 2 m/S 749 mmHg 81%
    02:00 +10°C° 0 mm 2 m/S 749 mmHg 82%
    03:00 +10°C° 0 mm 2 m/S 749 mmHg 81%
    04:00 +12°C° 0 mm 2 m/S 749 mmHg 79%
    05:00 +12°C° 0 mm 2 m/S 749 mmHg 77%
    06:00 +14°C° 0 mm 2 m/S 749 mmHg 69%
    07:00 +16°C° 0 mm 2 m/S 749 mmHg 62%
    08:00 +18°C° 0 mm 2 m/S 749 mmHg 55%
    09:00 +19°C° 0 mm 2 m/S 749 mmHg 50%
    10:00 +21°C° 0 mm 2 m/S 749 mmHg 45%
    11:00 +22°C° 0 mm 3 m/S 749 mmHg 41%
    12:00 +22°C° 0 mm 3 m/S 749 mmHg 40%
    13:00 +23°C° 0 mm 2 m/S 748 mmHg 39%
    14:00 +23°C° 0 mm 2 m/S 748 mmHg 38%
    15:00 +23°C° 0 mm 2 m/S 748 mmHg 39%
    16:00 +23°C° 0 mm 2 m/S 748 mmHg 39%
    17:00 +23°C° 0 mm 2 m/S 748 mmHg 40%
    18:00 +22°C° 0 mm 1 m/S 748 mmHg 46%
    19:00 +20°C° 0 mm 1 m/S 748 mmHg 52%
    20:00 +19°C° 0 mm 1 m/S 748 mmHg 58%
    21:00 +18°C° 0 mm 1 m/S 748 mmHg 61%
    22:00 +15°C° 0 mm 1 m/S 748 mmHg 64%
    23:00 +14°C° 0 mm 1 m/S 748 mmHg 67%

    Morgen, 18 Juli, Donnerstag

    Zeit Temperatur Niederschläge Wind Luftdruck Luftfeuchtigkeit
    00:00 +13°C° 0 mm 1 m/S 748 mmHg 70%
    01:00 +13°C° 0 mm 1 m/S 748 mmHg 73%
    02:00 +12°C° 0 mm 2 m/S 748 mmHg 76%
    03:00 +13°C° 0 mm 2 m/S 748 mmHg 76%
    04:00 +13°C° 0 mm 2 m/S 748 mmHg 76%
    05:00 +13°C° 0 mm 2 m/S 748 mmHg 76%
    06:00 +15°C° 0 mm 2 m/S 748 mmHg 68%
    07:00 +17°C° 0 mm 2 m/S 748 mmHg 60%
    08:00 +19°C° 0 mm 3 m/S 748 mmHg 52%
    09:00 +21°C° 0 mm 3 m/S 748 mmHg 47%
    10:00 +22°C° 0 mm 3 m/S 748 mmHg 42%
    11:00 +24°C° 0 mm 3 m/S 748 mmHg 38%
    12:00 +23°C° 0 mm 4 m/S 748 mmHg 37%
    13:00 +25°C° 0 mm 4 m/S 748 mmHg 35%
    14:00 +25°C° 0 mm 4 m/S 747 mmHg 34%
    15:00 +25°C° 0 mm 4 m/S 747 mmHg 38%
    16:00 +23°C° 0 mm 4 m/S 747 mmHg 42%
    17:00 +23°C° 0 mm 5 m/S 748 mmHg 46%
    18:00 +21°C° 0 mm 4 m/S 747 mmHg 54%
    19:00 +20°C° 0 mm 4 m/S 747 mmHg 62%
    20:00 +18°C° 0 mm 3 m/S 747 mmHg 70%
    21:00 +17°C° 0 mm 3 m/S 748 mmHg 77%
    22:00 +14°C° 0 mm 3 m/S 748 mmHg 85%
    23:00 +13°C° 0 mm 3 m/S 748 mmHg 93%

    übermorgen, 19 Juli, Freitag

    Zeit Temperatur Niederschläge Wind Luftdruck Luftfeuchtigkeit
    00:00 +13°C° 0 mm 3 m/S 748 mmHg 91%
    01:00 +14°C° 0 mm 3 m/S 748 mmHg 90%
    02:00 +14°C° 0 mm 3 m/S 748 mmHg 88%
    03:00 +14°C° 0 mm 4 m/S 748 mmHg 88%
    04:00 +14°C° 0 mm 4 m/S 748 mmHg 88%
    05:00 +14°C° 0 mm 4 m/S 748 mmHg 87%
    06:00 +14°C° 0 mm 4 m/S 748 mmHg 85%
    07:00 +15°C° 0 mm 4 m/S 747 mmHg 82%
    08:00 +15°C° 0 mm 4 m/S 747 mmHg 80%
    09:00 +15°C° 0.3 mm 4 m/S 747 mmHg 84%
    10:00 +14°C° 0.3 mm 5 m/S 747 mmHg 89%
    11:00 +14°C° 0.3 mm 5 m/S 747 mmHg 93%
    12:00 +14°C° 0.3 mm 4 m/S 747 mmHg 94%
    13:00 +14°C° 0.3 mm 4 m/S 747 mmHg 94%
    14:00 +14°C° 0.3 mm 4 m/S 747 mmHg 95%
    15:00 +15°C° 0 mm 4 m/S 747 mmHg 90%
    16:00 +17°C° 0 mm 4 m/S 748 mmHg 84%
    17:00 +18°C° 0 mm 3 m/S 748 mmHg 79%
    18:00 +18°C° 0.2 mm 3 m/S 748 mmHg 81%
    19:00 +17°C° 0.2 mm 3 m/S 748 mmHg 82%
    20:00 +17°C° 0.2 mm 3 m/S 748 mmHg 83%
    21:00 +16°C° 0 mm 3 m/S 748 mmHg 87%
    22:00 +14°C° 0 mm 3 m/S 748 mmHg 90%
    23:00 +14°C° 0 mm 2 m/S 749 mmHg 94%

    20 Juli, Samstag

    Zeit Temperatur Niederschläge Wind Luftdruck Luftfeuchtigkeit
    00:00 +14°C° 0 mm 2 m/S 749 mmHg 92%
    01:00 +14°C° 0 mm 2 m/S 749 mmHg 90%
    02:00 +14°C° 0 mm 2 m/S 749 mmHg 88%
    03:00 +14°C° 0 mm 2 m/S 749 mmHg 87%
    04:00 +14°C° 0 mm 2 m/S 749 mmHg 86%
    05:00 +15°C° 0 mm 2 m/S 749 mmHg 84%
    06:00 +15°C° 0 mm 2 m/S 750 mmHg 79%
    07:00 +16°C° 0 mm 2 m/S 750 mmHg 74%
    08:00 +17°C° 0 mm 2 m/S 750 mmHg 69%
    09:00 +19°C° 0 mm 2 m/S 750 mmHg 61%
    10:00 +20°C° 0 mm 2 m/S 750 mmHg 54%
    11:00 +22°C° 0 mm 3 m/S 750 mmHg 47%
    12:00 +22°C° 0 mm 3 m/S 750 mmHg 44%
    13:00 +24°C° 0 mm 2 m/S 750 mmHg 42%
    14:00 +24°C° 0 mm 2 m/S 750 mmHg 40%
    15:00 +24°C° 0 mm 2 m/S 751 mmHg 41%
    16:00 +24°C° 0 mm 2 m/S 751 mmHg 42%
    17:00 +23°C° 0 mm 2 m/S 751 mmHg 43%
    18:00 +21°C° 0 mm 2 m/S 751 mmHg 49%
    19:00 +20°C° 0 mm 2 m/S 751 mmHg 55%
    20:00 +18°C° 0 mm 2 m/S 751 mmHg 61%
    21:00 +17°C° 0 mm 2 m/S 752 mmHg 63%
    22:00 +15°C° 0 mm 2 m/S 752 mmHg 65%
    23:00 +14°C° 0 mm 2 m/S 752 mmHg 67%

    21 Juli, Sonntag

    Zeit Temperatur Niederschläge Wind Luftdruck Luftfeuchtigkeit
    00:00 +13°C° 0 mm 2 m/S 753 mmHg 72%
    01:00 +13°C° 0 mm 2 m/S 753 mmHg 76%
    02:00 +12°C° 0 mm 1 m/S 753 mmHg 81%
    03:00 +13°C° 0 mm 2 m/S 754 mmHg 81%
    04:00 +13°C° 0 mm 2 m/S 754 mmHg 81%
    05:00 +13°C° 0 mm 2 m/S 754 mmHg 81%
    06:00 +15°C° 0 mm 2 m/S 754 mmHg 71%
    07:00 +17°C° 0 mm 2 m/S 754 mmHg 61%
    08:00 +18°C° 0 mm 2 m/S 755 mmHg 50%
    09:00 +20°C° 0 mm 2 m/S 755 mmHg 47%
    10:00 +22°C° 0 mm 1 m/S 755 mmHg 43%
    11:00 +24°C° 0 mm 1 m/S 755 mmHg 40%
    12:00 +24°C° 0 mm 1 m/S 755 mmHg 39%
    13:00 +25°C° 0 mm 1 m/S 755 mmHg 38%
    14:00 +26°C° 0 mm 1 m/S 755 mmHg 37%
    15:00 +26°C° 0 mm 1 m/S 755 mmHg 38%
    16:00 +25°C° 0 mm 1 m/S 755 mmHg 39%
    17:00 +25°C° 0 mm 1 m/S 755 mmHg 40%
    18:00 +23°C° 0 mm 1 m/S 755 mmHg 46%
    19:00 +22°C° 0 mm 1 m/S 755 mmHg 52%
    20:00 +20°C° 0 mm 1 m/S 755 mmHg 59%
    21:00 +19°C° 0 mm 1 m/S 755 mmHg 61%
    22:00 +16°C° 0 mm 1 m/S 755 mmHg 63%
    23:00 +15°C° 0 mm 1 m/S 755 mmHg 66%

    22 Juli, Montag

    Zeit Temperatur Niederschläge Wind Luftdruck Luftfeuchtigkeit
    00:00 +14°C° 0 mm 1 m/S 755 mmHg 70%
    01:00 +13°C° 0 mm 0 m/S 755 mmHg 73%
    02:00 +13°C° 0 mm 0 m/S 756 mmHg 77%
    03:00 +13°C° 0 mm 0 m/S 756 mmHg 77%
    04:00 +13°C° 0 mm 0 m/S 756 mmHg 76%
    05:00 +14°C° 0 mm 0 m/S 756 mmHg 75%
    06:00 +16°C° 0 mm 0 m/S 756 mmHg 67%
    07:00 +19°C° 0 mm 0 m/S 756 mmHg 58%
    08:00 +21°C° 0 mm 0 m/S 756 mmHg 49%
    09:00 +23°C° 0 mm 0 m/S 756 mmHg 44%
    10:00 +24°C° 0 mm 0 m/S 756 mmHg 39%
    11:00 +26°C° 0 mm 0 m/S 756 mmHg 35%
    12:00 +28°C° 0 mm 1 m/S 756 mmHg 35%
    13:00 +27°C° 0 mm 1 m/S 755 mmHg 35%
    14:00 +26°C° 0 mm 1 m/S 755 mmHg 36%
    15:00 +27°C° 0 mm 1 m/S 755 mmHg 35%
    16:00 +25°C° 0 mm 0 m/S 755 mmHg 35%
    17:00 +25°C° 0 mm 0 m/S 755 mmHg 34%
    18:00 +23°C° 0 mm 0 m/S 755 mmHg 41%
    19:00 +21°C° 0 mm 0 m/S 755 mmHg 48%
    20:00 +22°C° 0 mm 1 m/S 755 mmHg 54%
    21:00 +18°C° 0 mm 0 m/S 755 mmHg 57%
    22:00 +17°C° 0 mm 0 m/S 755 mmHg 60%
    23:00 +16°C° 0 mm 0 m/S 755 mmHg 63%
    Mehr zeigen